Weather History for Jordan, MT

Change the Weather History Date:

Thursday, April 24, 2014

  Actual Average Record
Temperature  
Mean Temperature 45 °F 46 °F  
Max Temperature 61 °F 61 °F 89 °F (1962)
Min Temperature 28 °F 32 °F 15 °F (1931)
Degree Days  
Heating Degree Days 20 19  
Month to date heating degree days 536 525  
Since 1 July heating degree days 7949 7627  
Cooling Degree Days 0 0  
Month to date cooling degree days 0 0  
Year to date cooling degree days 0 0  
Moisture  
Dew Point 26 °F    
Average Humidity 49    
Maximum Humidity 76    
Minimum Humidity 22    
Precipitation  
Precipitation 0.00 in 0.04 in 1.13 in (1932)
Month to date precipitation 0.08 0.75  
Year to date precipitation 1.35 1.75  
Snow  
Snow 0.00 in - - ()
Month to date snowfall 0.0  
Since 1 July snowfall 0.0  
Snow Depth 0.00 in    
Sea Level Pressure  
Sea Level Pressure 29.78 in    
Wind  
Wind Speed 11 mph (West)    
Max Wind Speed 25 mph    
Max Gust Speed 31 mph    
T = Trace of Precipitation, MM = Missing Value Source: NWS Daily Summary

Daily Weather History Graph

Daily Weather History Graph

Search for Another Location

Airport:

Trip Planner

Search our weather history database for the weather conditions in past years. The results will help you decide how hot, cold, wet, or windy it might be!

Date:

Astronomy

Apr. 24, 2014 Rise Set
Actual Time 6:03 AM MDT 8:09 PM MDT
Civil Twilight 5:29 AM MDT 8:42 PM MDT
Nautical Twilight 4:48 AM MDT 9:24 PM MDT
Astronomical Twilight 4:02 AM MDT 10:10 PM MDT
Moon 3:36 AM MDT (4/24) 3:09 PM MDT (4/24)
Length of Visible Light 15h 13m
Length of Day
14h 06m
Waning Crescent, 24% of the Moon is Illuminated
Apr 24
Waning Crescent
Apr 29
New
May 6
First Quarter
May 14
Full
May 21
Last Quarter

Hourly Weather History & Observations

Time (MDT) Temp. Windchill Dew Point Humidity Pressure Visibility Wind Dir Wind Speed Gust Speed Precip Events Conditions
12:48 AM 39.9 °F 33.4 °F 23.0 °F 51% 29.76 in - West 10.4 mph - N/A   Unknown
1:48 AM 41.0 °F 33.5 °F 24.1 °F 51% 29.75 in - WSW 13.8 mph - N/A   Unknown
2:48 AM 34.0 °F 26.0 °F 24.1 °F 67% 29.78 in - West 10.4 mph - N/A   Unknown
3:48 AM 33.1 °F 25.5 °F 24.1 °F 70% 29.78 in - West 9.2 mph - N/A   Unknown
4:48 AM 32.0 °F 24.2 °F 24.1 °F 73% 29.81 in - West 9.2 mph - N/A   Unknown
5:48 AM 30.0 °F 23.2 °F 23.0 °F 75% 29.82 in - West 6.9 mph - N/A   Unknown
6:48 AM 33.1 °F 27.7 °F 25.0 °F 72% 29.83 in - West 5.8 mph - N/A   Unknown
7:48 AM 41.0 °F 34.7 °F 26.1 °F 55% 29.83 in - West 10.4 mph - N/A   Unknown
8:48 AM 48.0 °F - 25.0 °F 41% 29.82 in - West 21.9 mph - N/A   Unknown
9:48 AM 51.1 °F - 24.1 °F 35% 29.81 in - West 19.6 mph 27.6 mph N/A   Unknown
10:48 AM 54.0 °F - 21.0 °F 28% 29.82 in - West 18.4 mph 26.5 mph N/A   Unknown
11:48 AM 55.9 °F - 18.0 °F 23% 29.81 in - West 21.9 mph 27.6 mph N/A   Unknown
12:48 PM 57.9 °F - 21.0 °F 24% 29.79 in - West 18.4 mph 31.1 mph N/A   Unknown
1:48 PM 60.1 °F - 21.9 °F 23% 29.76 in - West 18.4 mph 26.5 mph N/A   Unknown
2:48 PM 59.0 °F - 24.1 °F 26% 29.75 in - WNW 11.5 mph 24.2 mph N/A   Unknown
3:48 PM 57.9 °F - 28.0 °F 32% 29.76 in - West 20.7 mph - N/A   Unknown
4:48 PM 57.0 °F - 30.0 °F 36% 29.77 in - WNW 13.8 mph - N/A   Unknown
5:48 PM 57.0 °F - 30.9 °F 37% 29.77 in - WSW 9.2 mph - N/A   Unknown
6:48 PM 55.9 °F - 30.9 °F 39% 29.76 in - West 3.5 mph - N/A   Unknown
7:48 PM 53.1 °F - 34.0 °F 48% 29.76 in - West 8.1 mph - N/A   Unknown
8:48 PM 46.0 °F - 33.1 °F 61% 29.77 in - Calm Calm - N/A   Unknown
9:48 PM 46.0 °F - 34.0 °F 63% 29.77 in - Calm Calm - N/A   Unknown
10:48 PM 41.0 °F 39.0 °F 32.0 °F 70% 29.77 in - WNW 3.5 mph - N/A   Unknown
11:48 PM 37.0 °F 34.5 °F 30.9 °F 79% 29.78 in - NW 3.5 mph - N/A   Unknown